カタログに戻る

STARLINK-37530

運用中通信SSO
NORAD 69131·PAYLOAD·🇺🇸 United States

打ち上げ May 20, 2026 から Vandenberg Space Force Base

Loading…

次のパス (今後24時間)

TLE

最新Source: CelesTrak SupGP

元期: Sep 14, 2026, 23:15 UTC

1 69131C 26110H   26257.96923611  .00077604  00000+0  24089-2 0  2574
2 69131  97.2853  93.0804 0001477  99.5075  14.5577 15.33400422    18

AllMySatでSTARLINK-37530をリアルタイム追跡

Download on the App Store